Location: Unspecified
(0.0000°N, 0.0000°E)
Time: 12:23:50
(UTC+00:00)

S-56A Canister/Altair - Pass Details

Date: 17 December 2018
Orbit: 632 x 2500 km, 38.9° (Epoch: 15 July)

Event Time Altitude Azimuth Distance (km) Brightness Sun altitude
Rises 23:23:01 0° 247° (WSW) 3,056 - -65.3°
Reaches altitude 10° 23:25:16 10° 256° (WSW) 2,251 - -65.4°
Maximum altitude 23:30:03 38° 324° (NW) 1,351 - -65.8°
Drops below altitude 10° 23:36:38 10° 30° (NNE) 3,109 - -66.1°
Sets 23:40:17 0° 37° (NE) 4,398 - -66.3°
